Find Starlink 31738

NORAD ID: 59535 Int'l Des: 2024-074 Owner: SPXS Country: US Constellation: starlink operational
LEOCIRCULAR

現在のビュー

3D地球を読み込み中...

About Starlink 31738

Starlink 31738 (NORAD 59535) is a starlink constellation satellite (v2 mini) launched Apr 18, 2024 by SPXS of US. It operates in LEO, CIRCULAR orbit with a mass of 730.00 kg.

Starlink 31738について

説明を読み込み中...

次回通過

Passes for default location (London). Set your location on the main map for personalized predictions.

高度履歴

Loading altitude history...

軌道要素

1 59535U 24074B 26168.90079086 .00000752 00000-0 36852-4 0 9998
2 59535 42.9902 133.7454 0001284 227.3070 132.7673 15.27578627121382
Epoch: Jun 17, 2026 • Age: 12 hours

現在のステータス

高度 495.7 km
速度 7.62 km/s
衛星直下点 -43.14°S, 10.92°W
打ち上げ日 Apr 18, 2024
運用期間 2.1 years
タイプ internet

技術仕様

分類 Payload
質量 730.00 kg
乾燥質量 700.00 kg
総質量 730.00 kg
長さ 0.30 m
直径 4.10 m
スパン 29.00 m
形状 Box + pan
製造者 SPXS
バスタイプ Starlink V2M
フェーズステータス In Orbit
所有者/国 SPXS/US

Most Searched